Simultaneous Nadir Overpasses (SNOs) Predictions

Prediction of SNOs between NOAA-19 and TERRA Satellite Orbit:

Table of predicted SNOs for the next 14.0 days since TLE Epoch: 6/8/2017
Index Date (NOAA-19) Time (NOAA-19) Lat,Lon (NOAA-19) SZA (NOAA-19 ) Date (TERRA) Time (TERRA) Lat,Lon (TERRA) SZA (TERRA ) Distance(km) Time Diff (sec)
1 06/10/2017 20:56:12 -75.51, 57.14 127.32 06/10/2017 20:56:17 -75.48, 57.18 127.35 3.32 5
2 06/10/2017 21:46:59 74.97,-133.89 52.26 06/10/2017 21:45:52 75.01,-136.46 52.12 73.98 67
3 06/13/2017 02:29:59 75.50, 153.79 52.53 06/13/2017 02:30:00 75.49, 153.79 52.52 0.42 1
4 06/15/2017 07:13:02 76.15, 80.86 52.95 06/15/2017 07:14:06 76.07, 84.42 53.07 95.27 64
5 06/15/2017 08:03:49 -75.48,-109.55 127.60 06/15/2017 08:03:45 -75.50,-109.62 127.58 3.06 4
6 06/17/2017 12:46:46 -75.94, 178.24 127.30 06/17/2017 12:47:55 -75.83,-179.75 127.29 56.00 69
7 06/17/2017 13:37:37 75.52, -13.07 52.36 06/17/2017 13:37:27 75.51, -13.04 52.35 1.98 10
8 06/19/2017 18:20:30 75.73, -84.43 52.49 06/19/2017 18:21:42 75.63, -83.75 52.44 21.82 72
9 06/19/2017 19:11:26 -75.52, 83.55 127.69 06/19/2017 19:11:12 -75.52, 83.55 127.69 0.15 14
10 06/21/2017 23:54:16 -75.62, 12.56 127.61 06/21/2017 23:55:28 -75.59, 12.69 127.62 4.84 72
11 06/22/2017 00:45:15 75.52,-179.84 52.31 06/22/2017 00:44:55 75.51,-179.89 52.30 1.55 20




NCC Satellite Simultaneous Nadir Overpasses (SNOs) Prediction Service
